Location: 81360 Arifat, France
(43.7204°N, 2.3408°E)
Time: 03:10:44
(UTC+01:00)

ACS3 Solar Sail - Pass Details

Date: 14 October 2025
Orbit: 909 x 993 km, 97.3° (Epoch: 13 November)

Event Time Altitude Azimuth Distance (km) Brightness Sun altitude
Rises 06:29:39 0° 5° (N) 3,550 4.9 -17.8°
Reaches altitude 10° 06:32:12 10° 358° (N) 2,604 4.1 -17.3°
Maximum altitude 06:37:31 39° 291° (WNW) 1,339 2.1 -16.4°
Enters shadow 06:41:53 15° 229° (SW) 2,270 3.3 -15.6°
